QPF
0.05 0.06 0.05 0.04 0.04 0.04 0.05 0.09 0.13 0.11 0.08 0.07 0.04 0.02 0.03 0.05 0.06 0.04 0.03 0.02 0.02 0.02 0.01 0.01 0.01 0.01 0.02 0.03 0.06 0.07 0.08 0.08 0.07 0.07 0.08 0.08 0.10 0.09
0.05 0.07 0.06 0.06 0.07 0.07 0.06 0.07 0.10 0.11 0.09 0.06 0.05 0.03 0.04 0.05 0.08 0.06 0.06 0.05 0.03 0.03 0.02 0.02 0.01 0.01 0.01 0.02 0.03 0.04 0.06 0.07 0.07 0.06 0.07 0.07 0.08 0.09
0.05 0.06 0.06 0.09 0.09 0.10 0.10 0.11 0.10 0.10 0.09 0.06 0.05 0.05 0.07 0.07 0.09 0.10 0.10 0.08 0.03 0.03 0.03 0.02 0.01 0.01 0.01 0.01 0.01 0.02 0.03 0.04 0.04 0.04 0.04 0.04 0.04 0.04
0.05 0.06 0.06 0.07 0.08 0.08 0.08 0.07 0.08 0.08 0.08 0.07 0.07 0.08 0.09 0.08 0.08 0.08 0.07 0.05 0.03 0.04 0.03 0.02 0.02 0.01 0.00 0.01 0.01 0.02 0.02 0.02 0.02 0.02 0.02 0.01 0.01 0.02
0.06 0.05 0.05 0.06 0.06 0.07 0.07 0.07 0.07 0.08 0.09 0.07 0.06 0.10 0.09 0.07 0.07 0.07 0.06 0.05 0.03 0.06 0.03 0.01 0.01 0.01 0.01 0.01 0.01 0.01 0.01 0.01 0.01 0.02 0.01 0.01 0.01 0.01
0.04 0.05 0.05 0.04 0.04 0.05 0.06 0.08 0.09 0.11 0.12 0.10 0.08 0.08 0.09 0.08 0.07 0.07 0.07 0.06 0.05 0.04 0.04 0.02 0.01 0.01 0.01 0.01 0.01 0.01 0.01 0.01 0.01 0.01 0.01 0.01 0.01 0.01
0.05 0.06 0.05 0.05 0.06 0.05 0.04 0.06 0.07 0.08 0.10 0.09 0.09 0.09 0.09 0.08 0.06 0.05 0.05 0.06 0.06 0.04 0.05 0.03 0.02 0.02 0.02 0.02 0.02 0.02 0.02 0.01 0.01 0.01 0.01 0.01 0.00 0.00
0.05 0.05 0.05 0.06 0.07 0.04 0.03 0.03 0.03 0.04 0.05 0.07 0.09 0.09 0.10 0.10 0.07 0.06 0.05 0.06 0.05 0.04 0.06 0.06 0.04 0.03 0.03 0.02 0.03 0.03 0.03 0.01 0.01 0.01 0.01 0.00 0.00 0.00
0.05 0.05 0.05 0.05 0.05 0.04 0.04 0.04 0.03 0.02 0.02 0.04 0.05 0.06 0.07 0.07 0.08 0.07 0.05 0.05 0.05 0.05 0.08 0.09 0.08 0.05 0.03 0.02 0.03 0.03 0.02 0.01 0.01 0.01 0.01 0.01 0.01 0.01
0.06 0.06 0.06 0.06 0.04 0.03 0.05 0.05 0.04 0.03 0.02 0.02 0.02 0.03 0.04 0.04 0.06 0.06 0.05 0.05 0.04 0.03 0.04 0.05 0.07 0.06 0.04 0.04 0.04 0.03 0.02 0.02 0.02 0.01 0.01 0.01 0.02 0.02
0.05 0.05 0.05 0.05 0.05 0.04 0.05 0.06 0.05 0.05 0.04 0.03 0.02 0.02 0.02 0.02 0.03 0.04 0.04 0.04 0.04 0.03 0.03 0.03 0.04 0.06 0.05 0.04 0.04 0.04 0.03 0.02 0.02 0.02 0.02 0.02 0.04 0.03
0.04 0.05 0.04 0.04 0.04 0.04 0.04 0.05 0.06 0.06 0.05 0.04 0.03 0.02 0.03 0.02 0.02 0.02 0.02 0.03 0.03 0.03 0.02 0.04 0.04 0.07 0.07 0.05 0.05 0.04 0.03 0.03 0.04 0.04 0.03 0.04 0.06 0.03
0.04 0.04 0.05 0.06 0.04 0.04 0.03 0.03 0.05 0.06 0.06 0.06 0.05 0.04 0.04 0.05 0.04 0.02 0.02 0.02 0.02 0.02 0.02 0.04 0.04 0.06 0.08 0.07 0.07 0.06 0.05 0.04 0.04 0.03 0.03 0.06 0.09 0.07
0.04 0.04 0.05 0.05 0.03 0.02 0.03 0.03 0.03 0.04 0.05 0.06 0.06 0.05 0.04 0.04 0.04 0.04 0.03 0.02 0.02 0.02 0.02 0.05 0.05 0.05 0.05 0.05 0.05 0.06 0.05 0.04 0.03 0.02 0.02 0.03 0.04 0.04
0.03 0.04 0.03 0.03 0.03 0.03 0.03 0.03 0.03 0.03 0.04 0.05 0.06 0.06 0.04 0.04 0.04 0.05 0.04 0.03 0.02 0.02 0.03 0.04 0.04 0.04 0.04 0.04 0.04 0.03 0.04 0.04 0.03 0.02 0.02 0.02 0.02 0.03
0.04 0.04 0.03 0.03 0.03 0.03 0.03 0.03 0.03 0.04 0.04 0.04 0.05 0.05 0.04 0.04 0.04 0.03 0.05 0.04 0.03 0.02 0.02 0.03 0.03 0.03 0.04 0.03 0.04 0.03 0.03 0.03 0.04 0.03 0.03 0.03 0.02 0.02
0.04 0.03 0.03 0.02 0.03 0.03 0.03 0.03 0.03 0.04 0.04 0.03 0.04 0.03 0.04 0.04 0.04 0.04 0.04 0.04 0.04 0.03 0.03 0.02 0.02 0.03 0.04 0.04 0.04 0.04 0.04 0.04 0.03 0.05 0.04 0.03 0.03 0.03
0.03 0.04 0.04 0.03 0.02 0.02 0.03 0.03 0.03 0.03 0.03 0.03 0.04 0.04 0.04 0.04 0.04 0.04 0.04 0.04 0.03 0.04 0.04 0.03 0.03 0.03 0.04 0.04 0.04 0.04 0.04 0.05 0.05 0.05 0.05 0.04 0.03 0.03
0.03 0.04 0.04 0.03 0.03 0.02 0.03 0.03 0.03 0.03 0.04 0.05 0.04 0.04 0.04 0.04 0.04 0.04 0.04 0.04 0.04 0.03 0.04 0.04 0.03 0.04 0.04 0.03 0.02 0.02 0.04 0.05 0.05 0.05 0.06 0.05 0.03 0.03
0.03 0.03 0.05 0.05 0.05 0.04 0.04 0.04 0.04 0.05 0.06 0.07 0.07 0.05 0.04 0.04 0.04 0.04 0.04 0.05 0.05 0.04 0.04 0.04 0.04 0.04 0.04 0.03 0.02 0.02 0.03 0.04 0.05 0.05 0.06 0.06 0.05 0.03
0.03 0.04 0.05 0.06 0.06 0.07 0.07 0.07 0.06 0.06 0.07 0.08 0.08 0.08 0.06 0.06 0.05 0.04 0.05 0.06 0.06 0.05 0.05 0.04 0.03 0.03 0.04 0.04 0.04 0.04 0.04 0.03 0.04 0.05 0.06 0.06 0.06 0.06
0.03 0.03 0.04 0.06 0.07 0.09 0.09 0.07 0.07 0.07 0.08 0.08 0.08 0.08 0.08 0.07 0.06 0.05 0.05 0.05 0.05 0.05 0.05 0.05 0.05 0.04 0.04 0.05 0.05 0.05 0.05 0.05 0.05 0.05 0.06 0.07 0.07 0.06
0.03 0.03 0.03 0.04 0.06 0.07 0.07 0.07 0.08 0.07 0.07 0.07 0.08 0.08 0.07 0.07 0.06 0.05 0.05 0.04 0.04 0.04 0.05 0.06 0.06 0.05 0.06 0.06 0.08 0.08 0.07 0.08 0.07 0.07 0.05 0.06 0.06 0.05
MSLP
1015.13 1015.21 1015.32 1015.46 1015.59 1015.69 1015.74 1015.74 1015.69 1015.59 1015.48 1015.37 1015.28 1015.22 1015.19 1015.19 1015.20 1015.22 1015.23 1015.22 1015.20 1015.15 1015.06 1014.95 1014.80 1014.62 1014.39 1014.13 1013.83 1013.51 1013.18 1012.85 1012.54 1012.26 1012.03 1011.86 1011.76 1011.73
1015.41 1015.48 1015.59 1015.70 1015.82 1015.91 1015.96 1015.96 1015.91 1015.83 1015.72 1015.60 1015.48 1015.38 1015.31 1015.25 1015.20 1015.17 1015.14 1015.12 1015.10 1015.07 1015.03 1014.98 1014.92 1014.82 1014.69 1014.52 1014.30 1014.04 1013.75 1013.43 1013.10 1012.78 1012.49 1012.23 1012.02 1011.88
1015.64 1015.72 1015.82 1015.92 1016.02 1016.11 1016.16 1016.17 1016.14 1016.08 1015.99 1015.88 1015.75 1015.63 1015.50 1015.38 1015.27 1015.17 1015.08 1015.01 1014.94 1014.90 1014.87 1014.86 1014.84 1014.82 1014.77 1014.69 1014.56 1014.38 1014.16 1013.88 1013.57 1013.24 1012.91 1012.59 1012.30 1012.05
1015.79 1015.88 1015.98 1016.09 1016.18 1016.27 1016.34 1016.38 1016.38 1016.35 1016.29 1016.20 1016.09 1015.95 1015.79 1015.62 1015.44 1015.26 1015.08 1014.93 1014.80 1014.71 1014.65 1014.63 1014.64 1014.66 1014.67 1014.66 1014.62 1014.52 1014.36 1014.15 1013.88 1013.56 1013.22 1012.86 1012.51 1012.19
1015.84 1015.95 1016.06 1016.17 1016.28 1016.39 1016.48 1016.55 1016.60 1016.62 1016.61 1016.56 1016.46 1016.33 1016.15 1015.94 1015.70 1015.44 1015.18 1014.94 1014.73 1014.56 1014.45 1014.40 1014.39 1014.41 1014.46 1014.49 1014.50 1014.46 1014.37 1014.21 1013.98 1013.70 1013.37 1013.00 1012.62 1012.25
1015.77 1015.90 1016.04 1016.17 1016.30 1016.43 1016.56 1016.68 1016.78 1016.86 1016.90 1016.90 1016.84 1016.72 1016.54 1016.31 1016.03 1015.72 1015.39 1015.06 1014.77 1014.53 1014.35 1014.23 1014.18 1014.17 1014.20 1014.24 1014.27 1014.26 1014.20 1014.08 1013.89 1013.64 1013.33 1012.98 1012.60 1012.20
1015.59 1015.75 1015.91 1016.07 1016.23 1016.40 1016.57 1016.74 1016.90 1017.02 1017.12 1017.17 1017.16 1017.07 1016.92 1016.69 1016.40 1016.05 1015.68 1015.30 1014.95 1014.63 1014.38 1014.19 1014.07 1014.01 1013.99 1013.99 1014.00 1013.98 1013.92 1013.81 1013.64 1013.41 1013.13 1012.80 1012.43 1012.04
1015.32 1015.51 1015.70 1015.89 1016.09 1016.30 1016.51 1016.72 1016.92 1017.09 1017.24 1017.34 1017.37 1017.33 1017.21 1017.01 1016.74 1016.40 1016.02 1015.62 1015.23 1014.87 1014.56 1014.31 1014.11 1013.98 1013.88 1013.81 1013.75 1013.68 1013.59 1013.46 1013.28 1013.06 1012.80 1012.49 1012.15 1011.79
1014.99 1015.20 1015.43 1015.66 1015.90 1016.14 1016.38 1016.61 1016.84 1017.05 1017.23 1017.36 1017.44 1017.44 1017.37 1017.22 1016.99 1016.69 1016.34 1015.97 1015.58 1015.20 1014.86 1014.55 1014.29 1014.08 1013.90 1013.74 1013.59 1013.44 1013.28 1013.10 1012.89 1012.66 1012.40 1012.11 1011.80 1011.47
1014.63 1014.88 1015.14 1015.40 1015.67 1015.93 1016.19 1016.44 1016.67 1016.89 1017.08 1017.23 1017.34 1017.38 1017.36 1017.26 1017.10 1016.87 1016.58 1016.26 1015.91 1015.56 1015.21 1014.88 1014.57 1014.29 1014.02 1013.77 1013.53 1013.29 1013.04 1012.79 1012.53 1012.26 1011.99 1011.71 1011.43 1011.13
1014.28 1014.57 1014.86 1015.15 1015.44 1015.71 1015.97 1016.21 1016.43 1016.63 1016.81 1016.96 1017.07 1017.14 1017.17 1017.13 1017.04 1016.89 1016.69 1016.44 1016.16 1015.86 1015.54 1015.21 1014.88 1014.56 1014.23 1013.90 1013.57 1013.23 1012.90 1012.57 1012.25 1011.94 1011.65 1011.36 1011.09 1010.82
1013.98 1014.30 1014.61 1014.92 1015.22 1015.48 1015.72 1015.93 1016.12 1016.29 1016.44 1016.57 1016.67 1016.76 1016.81 1016.83 1016.81 1016.74 1016.62 1016.47 1016.27 1016.03 1015.77 1015.48 1015.16 1014.82 1014.46 1014.08 1013.68 1013.28 1012.88 1012.48 1012.10 1011.74 1011.41 1011.11 1010.84 1010.59
1013.74 1014.08 1014.41 1014.72 1015.00 1015.25 1015.46 1015.63 1015.77 1015.89 1015.99 1016.09 1016.18 1016.26 1016.34 1016.39 1016.42 1016.43 1016.40 1016.33 1016.21 1016.06 1015.86 1015.62 1015.34 1015.02 1014.67 1014.27 1013.85 1013.41 1012.96 1012.52 1012.09 1011.69 1011.32 1011.00 1010.71 1010.46
1013.56 1013.90 1014.23 1014.53 1014.79 1015.00 1015.17 1015.29 1015.38 1015.45 1015.51 1015.57 1015.64 1015.71 1015.79 1015.87 1015.95 1016.01 1016.04 1016.05 1016.01 1015.93 1015.81 1015.64 1015.42 1015.15 1014.83 1014.47 1014.06 1013.62 1013.16 1012.69 1012.23 1011.80 1011.40 1011.04 1010.73 1010.46
1013.43 1013.75 1014.06 1014.33 1014.55 1014.72 1014.84 1014.91 1014.96 1014.98 1015.00 1015.04 1015.08 1015.15 1015.24 1015.34 1015.44 1015.54 1015.62 1015.68 1015.70 1015.69 1015.64 1015.54 1015.40 1015.20 1014.95 1014.64 1014.28 1013.88 1013.44 1012.98 1012.52 1012.06 1011.63 1011.24 1010.90 1010.60
1013.29 1013.58 1013.85 1014.07 1014.25 1014.37 1014.44 1014.48 1014.49 1014.49 1014.49 1014.51 1014.56 1014.63 1014.72 1014.84 1014.96 1015.08 1015.19 1015.28 1015.35 1015.39 1015.40 1015.38 1015.30 1015.19 1015.02 1014.80 1014.51 1014.18 1013.79 1013.36 1012.91 1012.45 1012.00 1011.58 1011.19 1010.85
1013.10 1013.34 1013.55 1013.72 1013.84 1013.92 1013.95 1013.96 1013.96 1013.95 1013.97 1014.00 1014.06 1014.16 1014.27 1014.41 1014.54 1014.68 1014.81 1014.92 1015.02 1015.09 1015.14 1015.17 1015.17 1015.14 1015.06 1014.93 1014.74 1014.49 1014.18 1013.80 1013.38 1012.93 1012.46 1012.01 1011.58 1011.20
1012.79 1012.97 1013.12 1013.22 1013.29 1013.33 1013.34 1013.34 1013.35 1013.37 1013.41 1013.49 1013.60 1013.74 1013.90 1014.06 1014.23 1014.38 1014.52 1014.64 1014.74 1014.83 1014.91 1014.98 1015.03 1015.07 1015.08 1015.04 1014.95 1014.79 1014.55 1014.24 1013.87 1013.44 1012.97 1012.50 1012.03 1011.60
1012.32 1012.43 1012.51 1012.56 1012.58 1012.59 1012.59 1012.60 1012.64 1012.70 1012.81 1012.96 1013.15 1013.35 1013.57 1013.79 1013.99 1014.16 1014.31 1014.44 1014.54 1014.63 1014.72 1014.81 1014.91 1015.00 1015.07 1015.11 1015.11 1015.04 1014.89 1014.65 1014.33 1013.93 1013.48 1013.00 1012.51 1012.05
1011.67 1011.71 1011.72 1011.71 1011.70 1011.69 1011.69 1011.73 1011.82 1011.96 1012.15 1012.39 1012.67 1012.97 1013.27 1013.55 1013.80 1014.01 1014.17 1014.30 1014.40 1014.49 1014.58 1014.68 1014.79 1014.91 1015.04 1015.14 1015.21 1015.22 1015.15 1014.99 1014.73 1014.39 1013.97 1013.50 1013.01 1012.53
1010.84 1010.81 1010.77 1010.71 1010.67 1010.65 1010.67 1010.76 1010.90 1011.13 1011.42 1011.76 1012.15 1012.55 1012.95 1013.31 1013.62 1013.88 1014.07 1014.21 1014.31 1014.39 1014.47 1014.56 1014.68 1014.82 1014.97 1015.13 1015.26 1015.34 1015.34 1015.26 1015.08 1014.80 1014.43 1014.00 1013.53 1013.06
1009.86 1009.78 1009.69 1009.61 1009.55 1009.53 1009.58 1009.71 1009.93 1010.24 1010.63 1011.09 1011.58 1012.10 1012.59 1013.04 1013.43 1013.74 1013.97 1014.13 1014.23 1014.31 1014.38 1014.46 1014.57 1014.72 1014.89 1015.08 1015.26 1015.40 1015.49 1015.49 1015.39 1015.20 1014.90 1014.54 1014.12 1013.68
1008.84 1008.71 1008.58 1008.47 1008.41 1008.41 1008.49 1008.67 1008.95 1009.34 1009.83 1010.39 1010.99 1011.61 1012.20 1012.74 1013.20 1013.56 1013.84 1014.03 1014.15 1014.23 1014.29 1014.37 1014.48 1014.63 1014.82 1015.03 1015.26 1015.46 1015.62 1015.72 1015.72 1015.62 1015.43 1015.15 1014.81 1014.44
Thickness
5710 5710 5710 5711 5712 5713 5712 5709 5701 5698 5701 5707 5709 5713 5713 5711 5709 5707 5705 5703 5701 5699 5698 5696 5695 5694 5692 5691 5690 5688 5687 5685 5684 5683 5682 5681 5680 5679
5706 5706 5705 5706 5707 5708 5707 5707 5705 5700 5697 5702 5704 5708 5708 5707 5704 5703 5700 5698 5696 5696 5694 5693 5691 5690 5689 5687 5686 5684 5683 5682 5680 5679 5678 5677 5676 5675
5702 5701 5701 5701 5701 5702 5702 5701 5700 5699 5694 5697 5700 5702 5702 5701 5699 5698 5696 5694 5693 5692 5691 5690 5688 5686 5685 5683 5682 5681 5679 5677 5676 5675 5674 5672 5671 5671
5697 5696 5696 5697 5695 5696 5695 5695 5695 5695 5692 5690 5693 5695 5696 5696 5695 5693 5693 5692 5691 5690 5688 5686 5684 5683 5681 5679 5678 5676 5675 5673 5671 5670 5669 5668 5667 5666
5692 5691 5690 5690 5689 5689 5689 5689 5689 5691 5689 5687 5688 5689 5690 5690 5689 5688 5688 5687 5687 5686 5684 5682 5680 5679 5678 5676 5674 5672 5671 5669 5667 5666 5665 5663 5662 5660
5688 5687 5686 5685 5683 5683 5683 5682 5683 5682 5682 5682 5682 5682 5683 5684 5683 5681 5679 5681 5681 5682 5680 5678 5677 5675 5673 5672 5670 5668 5666 5664 5663 5662 5660 5658 5656 5655
5683 5682 5681 5680 5679 5677 5677 5676 5676 5675 5674 5674 5674 5675 5675 5675 5674 5675 5673 5674 5675 5676 5674 5674 5672 5671 5669 5667 5665 5664 5662 5660 5658 5657 5655 5653 5652 5650
5677 5677 5676 5675 5673 5672 5671 5670 5669 5668 5667 5667 5667 5666 5667 5668 5668 5667 5666 5665 5664 5669 5667 5666 5667 5666 5665 5664 5662 5660 5658 5656 5654 5652 5650 5649 5647 5646
5672 5671 5671 5671 5668 5666 5665 5663 5663 5662 5662 5661 5660 5660 5660 5661 5660 5660 5659 5658 5658 5661 5660 5658 5659 5659 5660 5660 5658 5656 5654 5651 5649 5647 5646 5644 5643 5642
5668 5666 5664 5663 5662 5660 5659 5658 5657 5656 5657 5656 5656 5656 5656 5656 5655 5655 5655 5655 5656 5656 5655 5651 5652 5652 5655 5653 5652 5651 5649 5646 5644 5643 5642 5640 5639 5637
5663 5662 5660 5658 5656 5654 5652 5651 5651 5650 5651 5651 5651 5651 5651 5650 5650 5649 5649 5646 5646 5648 5650 5647 5647 5647 5647 5647 5646 5644 5642 5641 5639 5638 5636 5635 5633 5631
5657 5656 5655 5653 5650 5648 5646 5645 5643 5644 5644 5644 5644 5644 5645 5645 5644 5643 5643 5640 5640 5640 5643 5641 5640 5639 5638 5640 5639 5637 5636 5635 5634 5632 5631 5629 5627 5625
5650 5650 5649 5646 5644 5642 5640 5639 5638 5638 5637 5637 5638 5639 5639 5640 5640 5639 5639 5637 5635 5635 5638 5636 5634 5632 5630 5630 5631 5631 5630 5628 5627 5626 5624 5623 5621 5619
5644 5643 5642 5639 5637 5635 5634 5634 5633 5632 5631 5631 5632 5632 5633 5634 5635 5635 5635 5634 5634 5633 5633 5632 5629 5627 5624 5623 5623 5624 5623 5622 5620 5620 5618 5617 5615 5612
5636 5635 5634 5632 5631 5630 5630 5628 5627 5627 5627 5626 5626 5627 5629 5630 5630 5630 5630 5629 5629 5629 5629 5627 5625 5623 5621 5618 5617 5617 5616 5616 5615 5613 5612 5610 5609 5607
5627 5627 5626 5626 5626 5626 5625 5624 5623 5623 5623 5623 5623 5623 5624 5624 5623 5624 5623 5622 5621 5621 5622 5622 5620 5619 5616 5614 5612 5611 5610 5609 5609 5607 5606 5605 5603 5602
5618 5618 5619 5619 5619 5620 5620 5620 5619 5618 5618 5619 5618 5618 5617 5617 5617 5618 5616 5615 5614 5613 5613 5615 5615 5614 5612 5609 5606 5605 5604 5603 5602 5601 5599 5597 5597 5597
5610 5612 5612 5613 5613 5614 5614 5614 5614 5614 5614 5614 5613 5613 5612 5611 5611 5612 5611 5609 5607 5607 5607 5607 5606 5604 5603 5603 5601 5599 5597 5596 5596 5594 5593 5591 5591 5591
5605 5606 5606 5607 5607 5608 5609 5609 5609 5609 5609 5609 5609 5608 5607 5606 5605 5605 5604 5603 5602 5602 5601 5600 5598 5596 5593 5592 5595 5593 5591 5589 5588 5587 5586 5585 5585 5586
5601 5601 5601 5601 5602 5602 5603 5603 5603 5604 5604 5603 5603 5602 5601 5600 5599 5598 5598 5597 5596 5595 5594 5593 5592 5590 5588 5587 5587 5587 5586 5584 5582 5580 5580 5580 5579 5580
5596 5596 5596 5595 5596 5596 5597 5597 5597 5597 5597 5597 5596 5595 5594 5593 5592 5592 5592 5591 5589 5588 5587 5587 5586 5586 5584 5582 5580 5579 5579 5578 5577 5574 5573 5572 5572 5572
5590 5590 5590 5590 5590 5590 5590 5590 5591 5590 5590 5590 5590 5589 5588 5587 5586 5586 5586 5585 5584 5583 5582 5582 5581 5579 5577 5574 5572 5571 5571 5570 5570 5569 5567 5566 5565 5565
5583 5583 5583 5583 5583 5583 5583 5583 5583 5583 5583 5583 5583 5583 5583 5581 5581 5580 5580 5580 5579 5577 5576 5574 5572 5571 5569 5568 5566 5565 5564 5564 5563 5561 5560 5561 5561 5561